Time,TemperatureF,DewpointF,PressureIn,WindDirection,WindDirectionDegrees,WindSpeedMPH,WindSpeedGustMPH,Humidity,HourlyPrecipIn,Conditions,Clouds,dailyrainin,SoftwareType,DateUTC
2013-12-14 00:01:00,38.3,27.1,29.96,North,-999,-999.0,-999.0,64,-99.99,,,-99.99,meteohub,2013-12-14 05:01:00,
2013-12-14 00:02:00,38.3,27.1,29.96,North,-999,-999.0,-999.0,64,-99.99,,,-99.99,meteohub,2013-12-14 05:02:00,
2013-12-14 00:04:00,38.3,27.1,29.93,North,-999,-999.0,-999.0,64,-99.99,,,-99.99,meteohub,2013-12-14 05:04:00,
2013-12-14 00:09:00,38.5,27.3,29.93,North,-999,-999.0,-999.0,64,-99.99,,,-99.99,meteohub,2013-12-14 05:09:00,
2013-12-14 00:14:00,38.5,27.3,29.93,North,-999,-999.0,-999.0,64,-99.99,,,-99.99,meteohub,2013-12-14 05:14:00,
2013-12-14 00:19:00,38.7,27.5,29.96,North,-999,-999.0,-999.0,64,-99.99,,,-99.99,meteohub,2013-12-14 05:19:00,
2013-12-14 00:24:00,38.7,27.1,29.96,North,-999,-999.0,-999.0,63,-99.99,,,-99.99,meteohub,2013-12-14 05:24:00,
2013-12-14 00:29:00,38.8,27.3,29.96,North,-999,-999.0,-999.0,63,-99.99,,,-99.99,meteohub,2013-12-14 05:29:00,
2013-12-14 00:34:00,38.8,27.3,29.96,North,-999,-999.0,-999.0,63,-99.99,,,-99.99,meteohub,2013-12-14 05:34:00,
2013-12-14 00:39:00,38.8,27.3,29.96,North,-999,-999.0,-999.0,63,-99.99,,,-99.99,meteohub,2013-12-14 05:39:00,
2013-12-14 00:44:00,38.8,27.3,29.96,North,-999,-999.0,-999.0,63,-99.99,,,-99.99,meteohub,2013-12-14 05:44:00,
2013-12-14 00:50:00,38.8,27.7,29.93,North,-999,-999.0,-999.0,64,-99.99,,,-99.99,meteohub,2013-12-14 05:50:00,
2013-12-14 00:55:00,38.7,27.1,29.93,North,-999,-999.0,-999.0,63,-99.99,,,-99.99,meteohub,2013-12-14 05:55:00,
2013-12-14 01:00:00,38.7,26.8,29.93,North,-999,-999.0,-999.0,62,-99.99,,,-99.99,meteohub,2013-12-14 06:00:00,
2013-12-14 01:05:00,38.5,27.0,29.93,North,-999,-999.0,-999.0,63,-99.99,,,-99.99,meteohub,2013-12-14 06:05:00,
2013-12-14 01:10:00,38.5,26.6,29.93,North,-999,-999.0,-999.0,62,-99.99,,,-99.99,meteohub,2013-12-14 06:10:00,
2013-12-14 01:15:00,38.5,26.6,29.93,North,-999,-999.0,-999.0,62,-99.99,,,-99.99,meteohub,2013-12-14 06:15:00,
2013-12-14 01:20:00,38.5,26.6,29.93,North,-999,-999.0,-999.0,62,-99.99,,,-99.99,meteohub,2013-12-14 06:20:00,
2013-12-14 01:25:00,38.5,26.6,29.93,North,-999,-999.0,-999.0,62,-99.99,,,-99.99,meteohub,2013-12-14 06:25:00,
2013-12-14 01:30:00,38.3,26.4,29.93,North,-999,-999.0,-999.0,62,-99.99,,,-99.99,meteohub,2013-12-14 06:30:00,
2013-12-14 01:35:00,38.5,26.2,29.93,North,-999,-999.0,-999.0,61,-99.99,,,-99.99,meteohub,2013-12-14 06:35:00,
2013-12-14 01:41:00,38.5,26.2,29.93,North,-999,-999.0,-999.0,61,-99.99,,,-99.99,meteohub,2013-12-14 06:41:00,
2013-12-14 01:46:00,38.7,26.4,29.93,North,-999,-999.0,-999.0,61,-99.99,,,-99.99,meteohub,2013-12-14 06:46:00,
2013-12-14 01:51:00,39.0,25.9,29.93,North,-999,-999.0,-999.0,59,-99.99,,,-99.99,meteohub,2013-12-14 06:51:00,
2013-12-14 01:56:00,39.2,25.7,29.93,North,-999,-999.0,-999.0,58,-99.99,,,-99.99,meteohub,2013-12-14 06:56:00,
2013-12-14 02:01:00,39.4,25.5,29.93,North,-999,-999.0,-999.0,57,-99.99,,,-99.99,meteohub,2013-12-14 07:01:00,
2013-12-14 02:06:00,39.7,25.0,29.90,North,-999,-999.0,-999.0,55,-99.99,,,-99.99,meteohub,2013-12-14 07:06:00,
2013-12-14 02:11:00,39.7,25.0,29.90,North,-999,-999.0,-999.0,55,-99.99,,,-99.99,meteohub,2013-12-14 07:11:00,
2013-12-14 02:16:00,39.7,25.0,29.90,North,-999,-999.0,-999.0,55,-99.99,,,-99.99,meteohub,2013-12-14 07:16:00,
2013-12-14 02:21:00,39.7,25.3,29.90,North,-999,-999.0,-999.0,56,-99.99,,,-99.99,meteohub,2013-12-14 07:21:00,
2013-12-14 02:27:00,39.7,25.3,29.90,North,-999,-999.0,-999.0,56,-99.99,,,-99.99,meteohub,2013-12-14 07:27:00,
2013-12-14 02:32:00,39.7,25.9,29.90,North,-999,-999.0,-999.0,57,-99.99,,,-99.99,meteohub,2013-12-14 07:32:00,
2013-12-14 02:37:00,39.6,25.7,29.93,North,-999,-999.0,-999.0,57,-99.99,,,-99.99,meteohub,2013-12-14 07:37:00,
2013-12-14 02:42:00,39.6,26.1,29.93,North,-999,-999.0,-999.0,58,-99.99,,,-99.99,meteohub,2013-12-14 07:42:00,
2013-12-14 02:47:00,39.6,25.7,29.93,North,-999,-999.0,-999.0,57,-99.99,,,-99.99,meteohub,2013-12-14 07:47:00,
2013-12-14 02:52:00,39.4,26.2,29.93,North,-999,-999.0,-999.0,59,-99.99,,,-99.99,meteohub,2013-12-14 07:52:00,
2013-12-14 02:57:00,39.4,25.9,29.93,North,-999,-999.0,-999.0,58,-99.99,,,-99.99,meteohub,2013-12-14 07:57:00,
2013-12-14 03:02:00,39.4,25.9,29.93,North,-999,-999.0,-999.0,58,-99.99,,,-99.99,meteohub,2013-12-14 08:02:00,
2013-12-14 03:07:00,39.2,25.3,29.93,North,-999,-999.0,-999.0,57,-99.99,,,-99.99,meteohub,2013-12-14 08:07:00,
2013-12-14 03:12:00,39.2,25.3,29.93,North,-999,-999.0,-999.0,57,-99.99,,,-99.99,meteohub,2013-12-14 08:12:00,
2013-12-14 03:17:00,39.2,25.3,29.93,North,-999,-999.0,-999.0,57,-99.99,,,-99.99,meteohub,2013-12-14 08:17:00,
2013-12-14 03:22:00,39.0,25.5,29.93,North,-999,-999.0,-999.0,58,-99.99,,,-99.99,meteohub,2013-12-14 08:22:00,
2013-12-14 03:27:00,39.0,25.5,29.93,North,-999,-999.0,-999.0,58,-99.99,,,-99.99,meteohub,2013-12-14 08:27:00,
2013-12-14 03:32:00,39.0,25.5,29.93,North,-999,-999.0,-999.0,58,-99.99,,,-99.99,meteohub,2013-12-14 08:32:00,
2013-12-14 03:37:00,38.8,25.3,29.93,North,-999,-999.0,-999.0,58,-99.99,,,-99.99,meteohub,2013-12-14 08:37:00,
2013-12-14 03:42:00,38.8,25.3,29.93,North,-999,-999.0,-999.0,58,-99.99,,,-99.99,meteohub,2013-12-14 08:42:00,
2013-12-14 03:47:00,38.8,25.3,29.93,North,-999,-999.0,-999.0,58,-99.99,,,-99.99,meteohub,2013-12-14 08:47:00,
2013-12-14 03:52:00,38.8,25.3,29.93,North,-999,-999.0,-999.0,58,-99.99,,,-99.99,meteohub,2013-12-14 08:52:00,
2013-12-14 03:57:00,38.8,25.3,29.93,North,-999,-999.0,-999.0,58,-99.99,,,-99.99,meteohub,2013-12-14 08:57:00,
2013-12-14 04:02:00,38.8,25.3,29.93,North,-999,-999.0,-999.0,58,-99.99,,,-99.99,meteohub,2013-12-14 09:02:00,
2013-12-14 04:07:00,38.8,26.6,29.93,North,-999,-999.0,-999.0,61,-99.99,,,-99.99,meteohub,2013-12-14 09:07:00,
2013-12-14 04:12:00,38.8,26.2,29.93,North,-999,-999.0,-999.0,60,-99.99,,,-99.99,meteohub,2013-12-14 09:12:00,
2013-12-14 04:17:00,38.8,26.6,29.93,North,-999,-999.0,-999.0,61,-99.99,,,-99.99,meteohub,2013-12-14 09:17:00,
2013-12-14 04:22:00,38.8,26.6,29.90,North,-999,-999.0,-999.0,61,-99.99,,,-99.99,meteohub,2013-12-14 09:22:00,
2013-12-14 04:27:00,38.8,26.6,29.90,North,-999,-999.0,-999.0,61,-99.99,,,-99.99,meteohub,2013-12-14 09:27:00,
2013-12-14 04:32:00,38.8,26.6,29.90,North,-999,-999.0,-999.0,61,-99.99,,,-99.99,meteohub,2013-12-14 09:32:00,
2013-12-14 04:37:00,38.8,27.0,29.90,North,-999,-999.0,-999.0,62,-99.99,,,-99.99,meteohub,2013-12-14 09:37:00,
2013-12-14 04:42:00,38.8,26.6,29.90,North,-999,-999.0,-999.0,61,-99.99,,,-99.99,meteohub,2013-12-14 09:42:00,
2013-12-14 04:47:00,38.8,26.6,29.90,North,-999,-999.0,-999.0,61,-99.99,,,-99.99,meteohub,2013-12-14 09:47:00,
2013-12-14 04:52:00,38.8,26.6,29.93,North,-999,-999.0,-999.0,61,-99.99,,,-99.99,meteohub,2013-12-14 09:52:00,
2013-12-14 04:57:00,38.8,26.6,29.93,North,-999,-999.0,-999.0,61,-99.99,,,-99.99,meteohub,2013-12-14 09:57:00,
2013-12-14 05:02:00,39.0,27.1,29.93,North,-999,-999.0,-999.0,62,-99.99,,,-99.99,meteohub,2013-12-14 10:02:00,
2013-12-14 05:07:00,39.0,27.1,29.90,North,-999,-999.0,-999.0,62,-99.99,,,-99.99,meteohub,2013-12-14 10:07:00,
2013-12-14 05:12:00,39.0,27.5,29.90,North,-999,-999.0,-999.0,63,-99.99,,,-99.99,meteohub,2013-12-14 10:12:00,
2013-12-14 05:17:00,39.0,27.5,29.90,North,-999,-999.0,-999.0,63,-99.99,,,-99.99,meteohub,2013-12-14 10:17:00,
2013-12-14 05:22:00,39.0,28.2,29.90,North,-999,-999.0,-999.0,65,-99.99,,,-99.99,meteohub,2013-12-14 10:22:00,
2013-12-14 05:27:00,39.0,27.9,29.90,North,-999,-999.0,-999.0,64,-99.99,,,-99.99,meteohub,2013-12-14 10:27:00,
2013-12-14 05:32:00,39.0,28.2,29.90,North,-999,-999.0,-999.0,65,-99.99,,,-99.99,meteohub,2013-12-14 10:32:00,
2013-12-14 05:37:00,39.0,28.2,29.90,North,-999,-999.0,-999.0,65,-99.99,,,-99.99,meteohub,2013-12-14 10:37:00,
2013-12-14 05:42:00,39.0,28.6,29.90,North,-999,-999.0,-999.0,66,-99.99,,,-99.99,meteohub,2013-12-14 10:42:00,
2013-12-14 05:47:00,39.0,28.9,29.90,North,-999,-999.0,-999.0,67,-99.99,,,-99.99,meteohub,2013-12-14 10:47:00,
2013-12-14 05:52:00,38.8,28.9,29.87,North,-999,-999.0,-999.0,67,-99.99,,,-99.99,meteohub,2013-12-14 10:52:00,
2013-12-14 05:57:00,39.0,29.3,29.87,North,-999,-999.0,-999.0,68,-99.99,,,-99.99,meteohub,2013-12-14 10:57:00,
2013-12-14 06:02:00,39.0,28.9,29.87,North,-999,-999.0,-999.0,67,-99.99,,,-99.99,meteohub,2013-12-14 11:02:00,
2013-12-14 06:07:00,38.8,29.5,29.87,North,-999,-999.0,-999.0,69,-99.99,,,-99.99,meteohub,2013-12-14 11:07:00,
2013-12-14 06:12:00,38.8,29.5,29.87,North,-999,-999.0,-999.0,69,-99.99,,,-99.99,meteohub,2013-12-14 11:12:00,
2013-12-14 06:17:00,38.8,29.5,29.87,North,-999,-999.0,-999.0,69,-99.99,,,-99.99,meteohub,2013-12-14 11:17:00,
2013-12-14 06:22:00,38.8,30.6,29.87,North,-999,-999.0,-999.0,72,-99.99,,,-99.99,meteohub,2013-12-14 11:22:00,
2013-12-14 06:27:00,38.7,31.1,29.87,North,-999,-999.0,-999.0,74,-99.99,,,-99.99,meteohub,2013-12-14 11:27:00,
2013-12-14 06:32:00,38.7,30.7,29.87,North,-999,-999.0,-999.0,73,-99.99,,,-99.99,meteohub,2013-12-14 11:32:00,
2013-12-14 06:37:00,38.7,30.7,29.87,North,-999,-999.0,-999.0,73,-99.99,,,-99.99,meteohub,2013-12-14 11:37:00,
2013-12-14 06:42:00,38.7,30.7,29.87,North,-999,-999.0,-999.0,73,-99.99,,,-99.99,meteohub,2013-12-14 11:42:00,
2013-12-14 06:47:00,38.8,30.9,29.87,North,-999,-999.0,-999.0,73,-99.99,,,-99.99,meteohub,2013-12-14 11:47:00,
2013-12-14 06:52:00,39.0,30.4,29.90,North,-999,-999.0,-999.0,71,-99.99,,,-99.99,meteohub,2013-12-14 11:52:00,
2013-12-14 06:57:00,39.2,29.8,29.90,North,-999,-999.0,-999.0,69,-99.99,,,-99.99,meteohub,2013-12-14 11:57:00,
2013-12-14 07:02:00,39.4,30.0,29.90,North,-999,-999.0,-999.0,69,-99.99,,,-99.99,meteohub,2013-12-14 12:02:00,
2013-12-14 07:07:00,39.4,30.0,29.90,North,-999,-999.0,-999.0,69,-99.99,,,-99.99,meteohub,2013-12-14 12:07:00,
2013-12-14 07:12:00,39.4,29.7,29.90,North,-999,-999.0,-999.0,68,-99.99,,,-99.99,meteohub,2013-12-14 12:12:00,
2013-12-14 07:17:00,39.6,29.1,29.90,North,-999,-999.0,-999.0,66,-99.99,,,-99.99,meteohub,2013-12-14 12:17:00,
2013-12-14 07:22:00,40.1,28.6,29.93,North,-999,-999.0,-999.0,63,-99.99,,,-99.99,meteohub,2013-12-14 12:22:00,
2013-12-14 07:27:00,40.3,28.4,29.93,North,-999,-999.0,-999.0,62,-99.99,,,-99.99,meteohub,2013-12-14 12:27:00,
2013-12-14 07:32:00,40.3,27.9,29.93,North,-999,-999.0,-999.0,61,-99.99,,,-99.99,meteohub,2013-12-14 12:32:00,
2013-12-14 07:37:00,40.6,27.1,29.93,North,-999,-999.0,-999.0,58,-99.99,,,-99.99,meteohub,2013-12-14 12:37:00,
2013-12-14 07:42:00,40.8,26.8,29.93,North,-999,-999.0,-999.0,57,-99.99,,,-99.99,meteohub,2013-12-14 12:42:00,
2013-12-14 07:47:00,41.0,26.6,29.93,North,-999,-999.0,-999.0,56,-99.99,,,-99.99,meteohub,2013-12-14 12:47:00,
2013-12-14 07:52:00,41.2,25.9,29.93,North,-999,-999.0,-999.0,54,-99.99,,,-99.99,meteohub,2013-12-14 12:52:00,
2013-12-14 07:57:00,41.4,26.1,29.93,North,-999,-999.0,-999.0,54,-99.99,,,-99.99,meteohub,2013-12-14 12:57:00,
2013-12-14 08:02:00,41.5,25.7,29.93,North,-999,-999.0,-999.0,53,-99.99,,,-99.99,meteohub,2013-12-14 13:02:00,
2013-12-14 08:07:00,41.7,25.5,29.93,North,-999,-999.0,-999.0,52,-99.99,,,-99.99,meteohub,2013-12-14 13:07:00,
2013-12-14 08:12:00,41.9,25.5,29.93,North,-999,-999.0,-999.0,52,-99.99,,,-99.99,meteohub,2013-12-14 13:12:00,
2013-12-14 08:17:00,42.3,25.0,29.93,North,-999,-999.0,-999.0,50,-99.99,,,-99.99,meteohub,2013-12-14 13:17:00,
2013-12-14 08:22:00,42.8,23.0,29.90,North,-999,-999.0,-999.0,45,-99.99,,,-99.99,meteohub,2013-12-14 13:22:00,
2013-12-14 08:27:00,43.0,23.2,29.90,North,-999,-999.0,-999.0,45,-99.99,,,-99.99,meteohub,2013-12-14 13:27:00,
2013-12-14 08:32:00,43.3,23.0,29.90,North,-999,-999.0,-999.0,44,-99.99,,,-99.99,meteohub,2013-12-14 13:32:00,
2013-12-14 08:37:00,43.3,24.1,29.90,North,-999,-999.0,-999.0,46,-99.99,,,-99.99,meteohub,2013-12-14 13:37:00,
2013-12-14 08:42:00,43.5,23.2,29.90,North,-999,-999.0,-999.0,44,-99.99,,,-99.99,meteohub,2013-12-14 13:42:00,
2013-12-14 08:47:00,43.7,22.6,29.90,North,-999,-999.0,-999.0,43,-99.99,,,-99.99,meteohub,2013-12-14 13:47:00,
2013-12-14 08:52:00,43.9,22.8,29.90,North,-999,-999.0,-999.0,43,-99.99,,,-99.99,meteohub,2013-12-14 13:52:00,
2013-12-14 08:57:00,44.1,23.0,29.90,North,-999,-999.0,-999.0,43,-99.99,,,-99.99,meteohub,2013-12-14 13:57:00,
2013-12-14 09:02:00,44.2,23.7,29.90,North,-999,-999.0,-999.0,44,-99.99,,,-99.99,meteohub,2013-12-14 14:02:00,
2013-12-14 09:07:00,44.2,23.2,29.93,North,-999,-999.0,-999.0,43,-99.99,,,-99.99,meteohub,2013-12-14 14:07:00,
2013-12-14 09:12:00,44.4,22.8,29.93,North,-999,-999.0,-999.0,42,-99.99,,,-99.99,meteohub,2013-12-14 14:12:00,
2013-12-14 09:17:00,44.8,21.9,29.93,North,-999,-999.0,-999.0,40,-99.99,,,-99.99,meteohub,2013-12-14 14:17:00,
2013-12-14 09:22:00,45.1,22.8,29.90,North,-999,-999.0,-999.0,41,-99.99,,,-99.99,meteohub,2013-12-14 14:22:00,
2013-12-14 09:27:00,45.3,23.0,29.90,North,-999,-999.0,-999.0,41,-99.99,,,-99.99,meteohub,2013-12-14 14:27:00,
2013-12-14 09:32:00,45.3,23.0,29.90,North,-999,-999.0,-999.0,41,-99.99,,,-99.99,meteohub,2013-12-14 14:32:00,
2013-12-14 09:37:00,45.5,23.2,29.90,North,-999,-999.0,-999.0,41,-99.99,,,-99.99,meteohub,2013-12-14 14:37:00,
2013-12-14 09:42:00,45.5,23.2,29.90,North,-999,-999.0,-999.0,41,-99.99,,,-99.99,meteohub,2013-12-14 14:42:00,
2013-12-14 09:47:00,45.9,23.5,29.90,North,-999,-999.0,-999.0,41,-99.99,,,-99.99,meteohub,2013-12-14 14:47:00,
2013-12-14 09:52:00,46.0,23.2,29.90,North,-999,-999.0,-999.0,40,-99.99,,,-99.99,meteohub,2013-12-14 14:52:00,
2013-12-14 09:57:00,46.0,23.2,29.90,North,-999,-999.0,-999.0,40,-99.99,,,-99.99,meteohub,2013-12-14 14:57:00,
2013-12-14 10:02:00,46.2,23.4,29.90,North,-999,-999.0,-999.0,40,-99.99,,,-99.99,meteohub,2013-12-14 15:02:00,
2013-12-14 10:07:00,46.6,23.5,29.87,North,-999,-999.0,-999.0,40,-99.99,,,-99.99,meteohub,2013-12-14 15:07:00,
2013-12-14 10:12:00,46.8,23.7,29.87,North,-999,-999.0,-999.0,40,-99.99,,,-99.99,meteohub,2013-12-14 15:12:00,
2013-12-14 10:17:00,47.1,24.1,29.87,North,-999,-999.0,-999.0,40,-99.99,,,-99.99,meteohub,2013-12-14 15:17:00,
2013-12-14 10:22:00,47.3,24.3,29.87,North,-999,-999.0,-999.0,40,-99.99,,,-99.99,meteohub,2013-12-14 15:22:00,
2013-12-14 10:27:00,47.3,24.3,29.87,North,-999,-999.0,-999.0,40,-99.99,,,-99.99,meteohub,2013-12-14 15:27:00,
2013-12-14 10:32:00,47.5,24.4,29.87,North,-999,-999.0,-999.0,40,-99.99,,,-99.99,meteohub,2013-12-14 15:32:00,
2013-12-14 10:37:00,47.5,24.4,29.84,North,-999,-999.0,-999.0,40,-99.99,,,-99.99,meteohub,2013-12-14 15:37:00,
2013-12-14 10:42:00,47.5,25.0,29.84,North,-999,-999.0,-999.0,41,-99.99,,,-99.99,meteohub,2013-12-14 15:42:00,
2013-12-14 10:47:00,47.5,25.0,29.84,North,-999,-999.0,-999.0,41,-99.99,,,-99.99,meteohub,2013-12-14 15:47:00,
2013-12-14 10:52:00,47.3,25.3,29.84,North,-999,-999.0,-999.0,42,-99.99,,,-99.99,meteohub,2013-12-14 15:52:00,
2013-12-14 10:57:00,47.5,25.5,29.84,North,-999,-999.0,-999.0,42,-99.99,,,-99.99,meteohub,2013-12-14 15:57:00,
2013-12-14 11:02:00,47.5,25.5,29.84,North,-999,-999.0,-999.0,42,-99.99,,,-99.99,meteohub,2013-12-14 16:02:00,
2013-12-14 11:07:00,47.5,26.1,29.81,North,-999,-999.0,-999.0,43,-99.99,,,-99.99,meteohub,2013-12-14 16:07:00,
2013-12-14 11:13:00,47.5,26.1,29.81,North,-999,-999.0,-999.0,43,-99.99,,,-99.99,meteohub,2013-12-14 16:13:00,
2013-12-14 11:18:00,47.5,26.1,29.81,North,-999,-999.0,-999.0,43,-99.99,,,-99.99,meteohub,2013-12-14 16:18:00,
2013-12-14 11:23:00,47.7,26.8,29.81,North,-999,-999.0,-999.0,44,-99.99,,,-99.99,meteohub,2013-12-14 16:23:00,
2013-12-14 11:28:00,47.5,27.3,29.81,North,-999,-999.0,-999.0,45,-99.99,,,-99.99,meteohub,2013-12-14 16:28:00,
2013-12-14 11:33:00,47.1,28.9,29.81,North,-999,-999.0,-999.0,49,-99.99,,,-99.99,meteohub,2013-12-14 16:33:00,
2013-12-14 11:38:00,46.4,29.3,29.81,North,-999,-999.0,-999.0,51,-99.99,,,-99.99,meteohub,2013-12-14 16:38:00,
2013-12-14 11:43:00,45.7,30.6,29.81,North,-999,-999.0,-999.0,55,-99.99,,,-99.99,meteohub,2013-12-14 16:43:00,
2013-12-14 11:48:00,45.0,31.1,29.78,North,-999,-999.0,-999.0,58,-99.99,,,-99.99,meteohub,2013-12-14 16:48:00,
2013-12-14 11:53:00,44.6,31.3,29.78,North,-999,-999.0,-999.0,59,-99.99,,,-99.99,meteohub,2013-12-14 16:53:00,
2013-12-14 11:58:00,44.4,32.2,29.78,North,-999,-999.0,-999.0,62,-99.99,,,-99.99,meteohub,2013-12-14 16:58:00,
2013-12-14 12:04:00,44.1,32.7,29.81,North,-999,-999.0,-999.0,64,-99.99,,,-99.99,meteohub,2013-12-14 17:04:00,
2013-12-14 12:09:00,44.1,33.1,29.81,North,-999,-999.0,-999.0,65,-99.99,,,-99.99,meteohub,2013-12-14 17:09:00,
2013-12-14 12:14:00,43.9,32.5,29.81,North,-999,-999.0,-999.0,64,-99.99,,,-99.99,meteohub,2013-12-14 17:14:00,
2013-12-14 12:19:00,43.7,33.4,29.75,North,-999,-999.0,-999.0,67,-99.99,,,-99.99,meteohub,2013-12-14 17:19:00,
2013-12-14 12:24:00,43.5,33.6,29.75,North,-999,-999.0,-999.0,68,-99.99,,,-99.99,meteohub,2013-12-14 17:24:00,
2013-12-14 12:29:00,43.5,34.0,29.75,North,-999,-999.0,-999.0,69,-99.99,,,-99.99,meteohub,2013-12-14 17:29:00,
2013-12-14 12:34:00,43.3,34.5,29.78,North,-999,-999.0,-999.0,71,-99.99,,,-99.99,meteohub,2013-12-14 17:34:00,
2013-12-14 12:39:00,43.3,34.9,29.78,North,-999,-999.0,-999.0,72,-99.99,,,-99.99,meteohub,2013-12-14 17:39:00,
2013-12-14 12:45:00,43.3,34.5,29.78,North,-999,-999.0,-999.0,71,-99.99,,,-99.99,meteohub,2013-12-14 17:45:00,
2013-12-14 12:50:00,43.3,34.9,29.75,North,-999,-999.0,-999.0,72,-99.99,,,-99.99,meteohub,2013-12-14 17:50:00,
2013-12-14 12:55:00,43.3,36.0,29.75,North,-999,-999.0,-999.0,75,-99.99,,,-99.99,meteohub,2013-12-14 17:55:00,
2013-12-14 13:00:00,43.3,36.3,29.75,North,-999,-999.0,-999.0,76,-99.99,,,-99.99,meteohub,2013-12-14 18:00:00,
2013-12-14 13:05:00,43.3,36.3,29.72,North,-999,-999.0,-999.0,76,-99.99,,,-99.99,meteohub,2013-12-14 18:05:00,
2013-12-14 13:10:00,43.5,36.9,29.72,North,-999,-999.0,-999.0,77,-99.99,,,-99.99,meteohub,2013-12-14 18:10:00,
2013-12-14 13:15:00,43.7,37.6,29.72,North,-999,-999.0,-999.0,79,-99.99,,,-99.99,meteohub,2013-12-14 18:15:00,
2013-12-14 13:20:00,43.7,37.9,29.66,North,-999,-999.0,-999.0,80,-99.99,,,-99.99,meteohub,2013-12-14 18:20:00,
2013-12-14 13:25:00,44.1,38.3,29.66,North,-999,-999.0,-999.0,80,-99.99,,,-99.99,meteohub,2013-12-14 18:25:00,
2013-12-14 13:30:00,44.2,38.8,29.66,North,-999,-999.0,-999.0,81,-99.99,,,-99.99,meteohub,2013-12-14 18:30:00,
2013-12-14 13:36:00,44.4,39.6,29.63,North,-999,-999.0,-999.0,83,-99.99,,,-99.99,meteohub,2013-12-14 18:36:00,
2013-12-14 13:41:00,44.4,39.2,29.63,North,-999,-999.0,-999.0,82,-99.99,,,-99.99,meteohub,2013-12-14 18:41:00,
2013-12-14 13:46:00,44.2,38.8,29.63,North,-999,-999.0,-999.0,81,-99.99,,,-99.99,meteohub,2013-12-14 18:46:00,
2013-12-14 13:51:00,44.2,38.8,29.63,North,-999,-999.0,-999.0,81,-99.99,,,-99.99,meteohub,2013-12-14 18:51:00,
2013-12-14 13:56:00,44.2,38.8,29.63,North,-999,-999.0,-999.0,81,-99.99,,,-99.99,meteohub,2013-12-14 18:56:00,
2013-12-14 14:01:00,44.2,38.8,29.63,North,-999,-999.0,-999.0,81,-99.99,,,-99.99,meteohub,2013-12-14 19:01:00,
2013-12-14 14:06:00,44.4,39.0,29.63,North,-999,-999.0,-999.0,81,-99.99,,,-99.99,meteohub,2013-12-14 19:06:00,
2013-12-14 14:11:00,44.6,39.2,29.63,North,-999,-999.0,-999.0,81,-99.99,,,-99.99,meteohub,2013-12-14 19:11:00,
2013-12-14 14:16:00,44.8,39.4,29.63,North,-999,-999.0,-999.0,81,-99.99,,,-99.99,meteohub,2013-12-14 19:16:00,
2013-12-14 14:21:00,45.0,39.6,29.60,North,-999,-999.0,-999.0,81,-99.99,,,-99.99,meteohub,2013-12-14 19:21:00,
2013-12-14 14:27:00,45.0,39.6,29.60,North,-999,-999.0,-999.0,81,-99.99,,,-99.99,meteohub,2013-12-14 19:27:00,
2013-12-14 14:32:00,45.0,39.2,29.60,North,-999,-999.0,-999.0,80,-99.99,,,-99.99,meteohub,2013-12-14 19:32:00,
2013-12-14 14:37:00,45.0,39.2,29.60,North,-999,-999.0,-999.0,80,-99.99,,,-99.99,meteohub,2013-12-14 19:37:00,
2013-12-14 14:42:00,45.0,39.2,29.60,North,-999,-999.0,-999.0,80,-99.99,,,-99.99,meteohub,2013-12-14 19:42:00,
2013-12-14 14:47:00,45.0,39.6,29.60,North,-999,-999.0,-999.0,81,-99.99,,,-99.99,meteohub,2013-12-14 19:47:00,
2013-12-14 14:52:00,45.0,39.6,29.57,North,-999,-999.0,-999.0,81,-99.99,,,-99.99,meteohub,2013-12-14 19:52:00,
2013-12-14 14:57:00,44.8,39.4,29.57,North,-999,-999.0,-999.0,81,-99.99,,,-99.99,meteohub,2013-12-14 19:57:00,
2013-12-14 15:02:00,44.8,39.4,29.57,North,-999,-999.0,-999.0,81,-99.99,,,-99.99,meteohub,2013-12-14 20:02:00,
2013-12-14 15:07:00,44.8,39.4,29.57,North,-999,-999.0,-999.0,81,-99.99,,,-99.99,meteohub,2013-12-14 20:07:00,
2013-12-14 15:12:00,44.8,39.4,29.57,North,-999,-999.0,-999.0,81,-99.99,,,-99.99,meteohub,2013-12-14 20:12:00,
2013-12-14 15:17:00,44.8,39.4,29.57,North,-999,-999.0,-999.0,81,-99.99,,,-99.99,meteohub,2013-12-14 20:17:00,
2013-12-14 15:22:00,44.6,39.2,29.57,North,-999,-999.0,-999.0,81,-99.99,,,-99.99,meteohub,2013-12-14 20:22:00,
2013-12-14 15:27:00,44.6,39.4,29.57,North,-999,-999.0,-999.0,82,-99.99,,,-99.99,meteohub,2013-12-14 20:27:00,
2013-12-14 15:32:00,44.6,39.7,29.57,North,-999,-999.0,-999.0,83,-99.99,,,-99.99,meteohub,2013-12-14 20:32:00,
2013-12-14 15:37:00,44.4,39.6,29.54,North,-999,-999.0,-999.0,83,-99.99,,,-99.99,meteohub,2013-12-14 20:37:00,
2013-12-14 15:42:00,44.2,39.7,29.54,North,-999,-999.0,-999.0,84,-99.99,,,-99.99,meteohub,2013-12-14 20:42:00,
2013-12-14 15:47:00,44.2,39.4,29.54,North,-999,-999.0,-999.0,83,-99.99,,,-99.99,meteohub,2013-12-14 20:47:00,
2013-12-14 15:52:00,44.1,39.6,29.57,North,-999,-999.0,-999.0,84,-99.99,,,-99.99,meteohub,2013-12-14 20:52:00,
2013-12-14 15:57:00,44.1,39.6,29.57,North,-999,-999.0,-999.0,84,-99.99,,,-99.99,meteohub,2013-12-14 20:57:00,
2013-12-14 16:02:00,43.9,39.4,29.57,North,-999,-999.0,-999.0,84,-99.99,,,-99.99,meteohub,2013-12-14 21:02:00,
2013-12-14 16:07:00,43.9,39.4,29.57,North,-999,-999.0,-999.0,84,-99.99,,,-99.99,meteohub,2013-12-14 21:07:00,
2013-12-14 16:12:00,43.7,39.6,29.57,North,-999,-999.0,-999.0,85,-99.99,,,-99.99,meteohub,2013-12-14 21:12:00,
2013-12-14 16:17:00,43.5,39.4,29.57,North,-999,-999.0,-999.0,85,-99.99,,,-99.99,meteohub,2013-12-14 21:17:00,
2013-12-14 16:22:00,43.5,39.4,29.54,North,-999,-999.0,-999.0,85,-99.99,,,-99.99,meteohub,2013-12-14 21:22:00,
2013-12-14 16:27:00,43.5,39.6,29.54,North,-999,-999.0,-999.0,86,-99.99,,,-99.99,meteohub,2013-12-14 21:27:00,
2013-12-14 16:32:00,43.3,39.7,29.54,North,-999,-999.0,-999.0,87,-99.99,,,-99.99,meteohub,2013-12-14 21:32:00,
2013-12-14 16:37:00,43.3,40.1,29.54,North,-999,-999.0,-999.0,88,-99.99,,,-99.99,meteohub,2013-12-14 21:37:00,
2013-12-14 16:42:00,43.2,39.9,29.54,North,-999,-999.0,-999.0,88,-99.99,,,-99.99,meteohub,2013-12-14 21:42:00,
2013-12-14 16:47:00,43.0,39.9,29.54,North,-999,-999.0,-999.0,89,-99.99,,,-99.99,meteohub,2013-12-14 21:47:00,
2013-12-14 16:52:00,43.0,39.9,29.54,North,-999,-999.0,-999.0,89,-99.99,,,-99.99,meteohub,2013-12-14 21:52:00,
2013-12-14 16:57:00,43.0,39.9,29.54,North,-999,-999.0,-999.0,89,-99.99,,,-99.99,meteohub,2013-12-14 21:57:00,
2013-12-14 17:02:00,42.8,39.6,29.54,North,-999,-999.0,-999.0,88,-99.99,,,-99.99,meteohub,2013-12-14 22:02:00,
2013-12-14 17:07:00,42.8,39.6,29.54,North,-999,-999.0,-999.0,88,-99.99,,,-99.99,meteohub,2013-12-14 22:07:00,
2013-12-14 17:12:00,42.8,39.6,29.54,North,-999,-999.0,-999.0,88,-99.99,,,-99.99,meteohub,2013-12-14 22:12:00,
2013-12-14 17:17:00,42.8,39.6,29.54,North,-999,-999.0,-999.0,88,-99.99,,,-99.99,meteohub,2013-12-14 22:17:00,
2013-12-14 17:22:00,43.0,39.7,29.54,North,-999,-999.0,-999.0,88,-99.99,,,-99.99,meteohub,2013-12-14 22:22:00,
2013-12-14 17:27:00,43.0,39.9,29.54,North,-999,-999.0,-999.0,89,-99.99,,,-99.99,meteohub,2013-12-14 22:27:00,
2013-12-14 17:32:00,43.0,39.9,29.54,North,-999,-999.0,-999.0,89,-99.99,,,-99.99,meteohub,2013-12-14 22:32:00,
2013-12-14 17:37:00,42.8,40.1,29.57,North,-999,-999.0,-999.0,90,-99.99,,,-99.99,meteohub,2013-12-14 22:37:00,
2013-12-14 17:42:00,42.8,40.1,29.57,North,-999,-999.0,-999.0,90,-99.99,,,-99.99,meteohub,2013-12-14 22:42:00,
2013-12-14 17:47:00,42.8,40.3,29.57,North,-999,-999.0,-999.0,91,-99.99,,,-99.99,meteohub,2013-12-14 22:47:00,
2013-12-14 17:52:00,42.6,39.9,29.57,North,-999,-999.0,-999.0,90,-99.99,,,-99.99,meteohub,2013-12-14 22:52:00,
2013-12-14 17:57:00,42.6,39.9,29.57,North,-999,-999.0,-999.0,90,-99.99,,,-99.99,meteohub,2013-12-14 22:57:00,
2013-12-14 18:02:00,42.4,39.7,29.57,North,-999,-999.0,-999.0,90,-99.99,,,-99.99,meteohub,2013-12-14 23:02:00,
2013-12-14 18:07:00,42.4,39.7,29.57,North,-999,-999.0,-999.0,90,-99.99,,,-99.99,meteohub,2013-12-14 23:07:00,
2013-12-14 18:12:00,42.4,39.7,29.57,North,-999,-999.0,-999.0,90,-99.99,,,-99.99,meteohub,2013-12-14 23:12:00,
2013-12-14 18:17:00,42.4,39.7,29.57,North,-999,-999.0,-999.0,90,-99.99,,,-99.99,meteohub,2013-12-14 23:17:00,
2013-12-14 18:22:00,42.4,39.4,29.54,North,-999,-999.0,-999.0,89,-99.99,,,-99.99,meteohub,2013-12-14 23:22:00,
2013-12-14 18:27:00,42.4,39.7,29.54,North,-999,-999.0,-999.0,90,-99.99,,,-99.99,meteohub,2013-12-14 23:27:00,
2013-12-14 18:32:00,42.4,39.7,29.54,North,-999,-999.0,-999.0,90,-99.99,,,-99.99,meteohub,2013-12-14 23:32:00,
2013-12-14 18:37:00,42.4,39.4,29.54,North,-999,-999.0,-999.0,89,-99.99,,,-99.99,meteohub,2013-12-14 23:37:00,
2013-12-14 18:42:00,42.4,39.7,29.54,North,-999,-999.0,-999.0,90,-99.99,,,-99.99,meteohub,2013-12-14 23:42:00,
2013-12-14 18:47:00,42.4,39.7,29.54,North,-999,-999.0,-999.0,90,-99.99,,,-99.99,meteohub,2013-12-14 23:47:00,
2013-12-14 18:52:00,42.3,39.6,29.54,North,-999,-999.0,-999.0,90,-99.99,,,-99.99,meteohub,2013-12-14 23:52:00,
2013-12-14 18:57:00,42.3,39.6,29.54,North,-999,-999.0,-999.0,90,-99.99,,,-99.99,meteohub,2013-12-14 23:57:00,
2013-12-14 19:02:00,42.3,39.6,29.54,North,-999,-999.0,-999.0,90,-99.99,,,-99.99,meteohub,2013-12-15 00:02:00,
2013-12-14 19:07:00,42.3,39.6,29.54,North,-999,-999.0,-999.0,90,-99.99,,,-99.99,meteohub,2013-12-15 00:07:00,
2013-12-14 19:12:00,42.3,39.6,29.54,North,-999,-999.0,-999.0,90,-99.99,,,-99.99,meteohub,2013-12-15 00:12:00,
2013-12-14 19:17:00,42.3,39.6,29.54,North,-999,-999.0,-999.0,90,-99.99,,,-99.99,meteohub,2013-12-15 00:17:00,
2013-12-14 19:22:00,42.3,39.6,29.54,North,-999,-999.0,-999.0,90,-99.99,,,-99.99,meteohub,2013-12-15 00:22:00,
2013-12-14 19:27:00,42.3,39.6,29.54,North,-999,-999.0,-999.0,90,-99.99,,,-99.99,meteohub,2013-12-15 00:27:00,
2013-12-14 19:32:00,42.1,39.4,29.54,North,-999,-999.0,-999.0,90,-99.99,,,-99.99,meteohub,2013-12-15 00:32:00,
2013-12-14 19:37:00,42.1,39.4,29.51,North,-999,-999.0,-999.0,90,-99.99,,,-99.99,meteohub,2013-12-15 00:37:00,
2013-12-14 19:42:00,42.3,39.6,29.51,North,-999,-999.0,-999.0,90,-99.99,,,-99.99,meteohub,2013-12-15 00:42:00,
2013-12-14 19:47:00,42.1,39.4,29.51,North,-999,-999.0,-999.0,90,-99.99,,,-99.99,meteohub,2013-12-15 00:47:00,
2013-12-14 19:52:00,42.1,39.4,29.51,North,-999,-999.0,-999.0,90,-99.99,,,-99.99,meteohub,2013-12-15 00:52:00,
2013-12-14 19:57:00,42.1,39.4,29.51,North,-999,-999.0,-999.0,90,-99.99,,,-99.99,meteohub,2013-12-15 00:57:00,
2013-12-14 20:02:00,42.1,39.4,29.51,North,-999,-999.0,-999.0,90,-99.99,,,-99.99,meteohub,2013-12-15 01:02:00,
2013-12-14 20:07:00,42.1,39.4,29.54,North,-999,-999.0,-999.0,90,-99.99,,,-99.99,meteohub,2013-12-15 01:07:00,
2013-12-14 20:12:00,42.1,39.4,29.54,North,-999,-999.0,-999.0,90,-99.99,,,-99.99,meteohub,2013-12-15 01:12:00,
2013-12-14 20:17:00,42.1,39.4,29.54,North,-999,-999.0,-999.0,90,-99.99,,,-99.99,meteohub,2013-12-15 01:17:00,
2013-12-14 20:22:00,41.9,39.2,29.51,North,-999,-999.0,-999.0,90,-99.99,,,-99.99,meteohub,2013-12-15 01:22:00,
2013-12-14 20:27:00,41.9,39.2,29.51,North,-999,-999.0,-999.0,90,-99.99,,,-99.99,meteohub,2013-12-15 01:27:00,
2013-12-14 20:32:00,41.7,39.0,29.51,North,-999,-999.0,-999.0,90,-99.99,,,-99.99,meteohub,2013-12-15 01:32:00,
2013-12-14 20:37:00,41.7,39.0,29.48,North,-999,-999.0,-999.0,90,-99.99,,,-99.99,meteohub,2013-12-15 01:37:00,
2013-12-14 20:42:00,41.7,39.0,29.48,North,-999,-999.0,-999.0,90,-99.99,,,-99.99,meteohub,2013-12-15 01:42:00,
2013-12-14 20:47:00,41.7,39.0,29.48,North,-999,-999.0,-999.0,90,-99.99,,,-99.99,meteohub,2013-12-15 01:47:00,
2013-12-14 20:52:00,41.7,39.0,29.48,North,-999,-999.0,-999.0,90,-99.99,,,-99.99,meteohub,2013-12-15 01:52:00,
2013-12-14 20:57:00,41.5,38.8,29.48,North,-999,-999.0,-999.0,90,-99.99,,,-99.99,meteohub,2013-12-15 01:57:00,
2013-12-14 21:02:00,41.5,38.8,29.48,North,-999,-999.0,-999.0,90,-99.99,,,-99.99,meteohub,2013-12-15 02:02:00,
2013-12-14 21:07:00,41.4,38.7,29.48,North,-999,-999.0,-999.0,90,-99.99,,,-99.99,meteohub,2013-12-15 02:07:00,
2013-12-14 21:12:00,41.5,38.8,29.48,North,-999,-999.0,-999.0,90,-99.99,,,-99.99,meteohub,2013-12-15 02:12:00,
2013-12-14 21:17:00,41.4,38.7,29.48,North,-999,-999.0,-999.0,90,-99.99,,,-99.99,meteohub,2013-12-15 02:17:00,
2013-12-14 21:22:00,41.4,38.7,29.48,North,-999,-999.0,-999.0,90,-99.99,,,-99.99,meteohub,2013-12-15 02:22:00,
2013-12-14 21:27:00,41.4,38.7,29.48,North,-999,-999.0,-999.0,90,-99.99,,,-99.99,meteohub,2013-12-15 02:27:00,
2013-12-14 21:32:00,41.2,38.5,29.48,North,-999,-999.0,-999.0,90,-99.99,,,-99.99,meteohub,2013-12-15 02:32:00,
2013-12-14 21:37:00,41.2,38.5,29.48,North,-999,-999.0,-999.0,90,-99.99,,,-99.99,meteohub,2013-12-15 02:37:00,
2013-12-14 21:42:00,41.0,38.3,29.48,North,-999,-999.0,-999.0,90,-99.99,,,-99.99,meteohub,2013-12-15 02:42:00,
2013-12-14 21:47:00,41.0,38.3,29.48,North,-999,-999.0,-999.0,90,-99.99,,,-99.99,meteohub,2013-12-15 02:47:00,
2013-12-14 21:52:00,41.0,38.3,29.48,North,-999,-999.0,-999.0,90,-99.99,,,-99.99,meteohub,2013-12-15 02:52:00,
2013-12-14 21:57:00,41.0,38.3,29.48,North,-999,-999.0,-999.0,90,-99.99,,,-99.99,meteohub,2013-12-15 02:57:00,
2013-12-14 22:02:00,41.0,38.3,29.48,North,-999,-999.0,-999.0,90,-99.99,,,-99.99,meteohub,2013-12-15 03:02:00,
2013-12-14 22:07:00,41.0,38.3,29.48,North,-999,-999.0,-999.0,90,-99.99,,,-99.99,meteohub,2013-12-15 03:07:00,
2013-12-14 22:12:00,41.0,38.3,29.48,North,-999,-999.0,-999.0,90,-99.99,,,-99.99,meteohub,2013-12-15 03:12:00,
2013-12-14 22:17:00,41.0,38.3,29.48,North,-999,-999.0,-999.0,90,-99.99,,,-99.99,meteohub,2013-12-15 03:17:00,
2013-12-14 22:22:00,41.0,38.3,29.48,North,-999,-999.0,-999.0,90,-99.99,,,-99.99,meteohub,2013-12-15 03:22:00,
2013-12-14 22:27:00,41.0,38.3,29.48,North,-999,-999.0,-999.0,90,-99.99,,,-99.99,meteohub,2013-12-15 03:27:00,
2013-12-14 22:32:00,41.0,38.3,29.48,North,-999,-999.0,-999.0,90,-99.99,,,-99.99,meteohub,2013-12-15 03:32:00,
2013-12-14 22:37:00,40.8,38.5,29.48,North,-999,-999.0,-999.0,91,-99.99,,,-99.99,meteohub,2013-12-15 03:37:00,
2013-12-14 22:42:00,41.0,38.3,29.48,North,-999,-999.0,-999.0,90,-99.99,,,-99.99,meteohub,2013-12-15 03:42:00,
2013-12-14 22:47:00,40.8,38.5,29.48,North,-999,-999.0,-999.0,91,-99.99,,,-99.99,meteohub,2013-12-15 03:47:00,
2013-12-14 22:52:00,40.8,38.1,29.48,North,-999,-999.0,-999.0,90,-99.99,,,-99.99,meteohub,2013-12-15 03:52:00,
2013-12-14 22:57:00,40.8,38.1,29.48,North,-999,-999.0,-999.0,90,-99.99,,,-99.99,meteohub,2013-12-15 03:57:00,
2013-12-14 23:02:00,40.8,38.5,29.48,North,-999,-999.0,-999.0,91,-99.99,,,-99.99,meteohub,2013-12-15 04:02:00,
2013-12-14 23:07:00,41.0,38.3,29.48,North,-999,-999.0,-999.0,90,-99.99,,,-99.99,meteohub,2013-12-15 04:07:00,
2013-12-14 23:12:00,40.8,38.5,29.48,North,-999,-999.0,-999.0,91,-99.99,,,-99.99,meteohub,2013-12-15 04:12:00,
2013-12-14 23:17:00,40.8,38.5,29.48,North,-999,-999.0,-999.0,91,-99.99,,,-99.99,meteohub,2013-12-15 04:17:00,
2013-12-14 23:22:00,40.8,38.5,29.48,North,-999,-999.0,-999.0,91,-99.99,,,-99.99,meteohub,2013-12-15 04:22:00,
2013-12-14 23:27:00,40.6,38.3,29.48,North,-999,-999.0,-999.0,91,-99.99,,,-99.99,meteohub,2013-12-15 04:27:00,
2013-12-14 23:32:00,40.6,37.9,29.48,North,-999,-999.0,-999.0,90,-99.99,,,-99.99,meteohub,2013-12-15 04:32:00,
2013-12-14 23:37:00,40.6,38.3,29.48,North,-999,-999.0,-999.0,91,-99.99,,,-99.99,meteohub,2013-12-15 04:37:00,
2013-12-14 23:42:00,40.6,38.3,29.48,North,-999,-999.0,-999.0,91,-99.99,,,-99.99,meteohub,2013-12-15 04:42:00,
2013-12-14 23:47:00,40.6,38.3,29.48,North,-999,-999.0,-999.0,91,-99.99,,,-99.99,meteohub,2013-12-15 04:47:00,
2013-12-14 23:52:00,40.5,38.1,29.45,North,-999,-999.0,-999.0,91,-99.99,,,-99.99,meteohub,2013-12-15 04:52:00,
2013-12-14 23:57:00,40.6,38.3,29.45,North,-999,-999.0,-999.0,91,-99.99,,,-99.99,meteohub,2013-12-15 04:57:00,